Location: Unspecified
(0.0000°N, 0.0000°E)
Time: 01:37:06
(UTC+00:00)

Vanguard 3 - Pass Details

Date: 24 November 2019
Orbit: 508 x 3263 km, 33.3° (Epoch: 11 December)

Event Time Altitude Azimuth Distance (km) Brightness Sun altitude
Rises 12:36:38 0° 283° (WNW) 6,082 11.7 66.1°
Reaches altitude 10° 12:41:47 10° 297° (WNW) 5,466 11.5 65.4°
Maximum altitude 12:54:24 23° 343° (NNW) 5,012 11.3 63.6°
Drops below altitude 10° 13:08:40 10° 29° (NNE) 6,134 11.4 61.3°
Sets 13:15:08 0° 43° (NE) 6,956 11.6 60.2°
